Location: Agus-us
(14.2247°N, 120.8593°E)
Time: 18:41:37
(UTC+00:00)

Cosmos 1726 Rocket - Pass Details

Date: 13 December 2025
Orbit: 554 x 663 km, 82.5° (Epoch: 20 January)

Event Time Altitude Azimuth Distance (km) Brightness Sun altitude
Exits shadow 20:56:11 12° 355° (N) 1,745 5.6 -17.9°
Maximum altitude 20:59:59 89° 263° (W) 564 3.3 -17.1°
Drops below altitude 10° 21:04:00 10° 176° (S) 1,830 6.3 -16.2°
Sets 21:06:09 0° 176° (S) 2,719 7.2 -15.7°
